Hourly Data Report for July 17, 2021

FLIN FLON
MANITOBA
Current Station Operator: ECCC - MSC

54°41'00.000" N
101°41'00.000" W
303.90 m
5050919
71954
WFO

Download Data

Hourly Data (July 2021)
Hourly Data Report for July 17, 2021
TIME
LST
Temp Definition
°C
Dew Point Definition
°C
Rel Hum Definition
%
Precip. Amount Definition
mm

Wind Dir Definition
10's deg

Wind Spd Definition
km/h
Visibility Definition
km
Stn Press Definition
kPa
Hmdx Definition


Wind Chill Definition


Weather Definition


00:00 15.9 8.9 63 0.0 2 16   98.22     LegendNANA
01:00 15.0 9.0 68 0.0 2 16   98.31     LegendNANA
02:00 15.0 9.1 68 0.0 2 20   98.38     LegendNANA
03:00 14.5 8.8 69 0.0 5 14   98.45     LegendNANA
04:00 13.6 8.3 71 0.0 5 15   98.48     LegendNANA
05:00 12.4 7.8 74 0.0 6 15   98.57     LegendNANA
06:00 11.6 6.9 73 0.0 5 15   98.67     LegendNANA
07:00 11.1 6.7 74 0.0 6 15   98.67     LegendNANA
08:00 11.0 5.8 71 0.0 7 18   98.75     LegendNANA
09:00 10.9 5.3 69 0.0 7 20   98.74     LegendNANA
10:00 11.6 5.4 65 0.0 8 13   98.78     LegendNANA
11:00 12.7 6.3 65 0.0 7 22   98.60     LegendNANA
12:00 13.3 6.2 62 0.0 7 8   98.71     LegendNANA
13:00 14.2 6.0 58 0.0 6 11   98.73     LegendNANA
14:00 14.4 6.2 58 0.0 5 11   98.85     LegendNANA
15:00 13.1 7.9 71 0.3 5 7   98.81     LegendNANA
16:00 11.7 9.2 85 1.8 12 12   98.55     LegendNANA
17:00 12.2 9.6 84 1.6 10 25   98.16     LegendNANA
18:00 12.0 10.5 91 0.1 1 9   98.53     LegendNANA
19:00 13.0 10.9 87 0.0 4 7   98.50     LegendNANA
20:00 13.3 11.6 90 0.0 8 11   98.51     LegendNANA
21:00 13.3 11.8 91 0.0 6 14   98.51     LegendNANA
22:00 13.0 11.3 89 0.0 7 19   98.49     LegendNANA
23:00 12.7 11.1 90 0.0 6 12   98.47     LegendNANA

Notes on Data Quality.

Legend

  • E = Estimated
  • M = Missing
  • NA = Not Available*
  • [empty] = Indicates an unobserved value
Date modified: